• en Belgique
  • Liste des pays
  • À 7 jours
  • Température de l'eau
  • Carte satellitaire
  • Carte météo
  • Widgets météo
  • user-avatar
    Se connecter

    Météo par heure à Crète

    Ce jour, 25 Septembre, Mardi

    Heure Température Précipitation Vent Pression Humidité
    00:00 +21°C° 0 mm 3 m/s 709 mmHg 72%
    01:00 +21°C° 0 mm 3 m/s 708 mmHg 73%
    02:00 +20°C° 0 mm 4 m/s 708 mmHg 74%
    03:00 +20°C° 0 mm 3 m/s 708 mmHg 76%
    04:00 +20°C° 0 mm 3 m/s 708 mmHg 78%
    05:00 +19°C° 0 mm 3 m/s 708 mmHg 79%
    06:00 +20°C° 0 mm 3 m/s 708 mmHg 74%
    07:00 +21°C° 0 mm 3 m/s 708 mmHg 69%
    08:00 +24°C° 0 mm 3 m/s 708 mmHg 62%
    09:00 +25°C° 0 mm 3 m/s 709 mmHg 57%
    10:00 +26°C° 0 mm 3 m/s 709 mmHg 52%
    11:00 +27°C° 0 mm 3 m/s 709 mmHg 47%
    12:00 +27°C° 0 mm 4 m/s 709 mmHg 46%
    13:00 +28°C° 0 mm 4 m/s 710 mmHg 46%
    14:00 +28°C° 0 mm 5 m/s 710 mmHg 45%
    15:00 +27°C° 0 mm 5 m/s 709 mmHg 49%
    16:00 +26°C° 0 mm 6 m/s 709 mmHg 53%
    17:00 +24°C° 0 mm 7 m/s 709 mmHg 57%
    18:00 +23°C° 0 mm 7 m/s 709 mmHg 60%
    19:00 +22°C° 0 mm 8 m/s 710 mmHg 64%
    20:00 +21°C° 0 mm 8 m/s 710 mmHg 67%
    21:00 +20°C° 0 mm 8 m/s 710 mmHg 67%
    22:00 +20°C° 0 mm 8 m/s 710 mmHg 67%
    23:00 +19°C° 0 mm 9 m/s 710 mmHg 67%

    Demain, 26 Septembre, Mercredi

    Heure Température Précipitation Vent Pression Humidité
    00:00 +19°C° 0 mm 9 m/s 710 mmHg 66%
    01:00 +19°C° 0 mm 9 m/s 710 mmHg 66%
    02:00 +18°C° 0 mm 9 m/s 710 mmHg 65%
    03:00 +18°C° 0 mm 10 m/s 710 mmHg 66%
    04:00 +18°C° 0 mm 10 m/s 710 mmHg 66%
    05:00 +17°C° 0 mm 10 m/s 710 mmHg 67%
    06:00 +18°C° 0 mm 11 m/s 710 mmHg 63%
    07:00 +18°C° 0 mm 11 m/s 710 mmHg 60%
    08:00 +18°C° 0 mm 11 m/s 710 mmHg 57%
    09:00 +19°C° 0 mm 11 m/s 710 mmHg 53%
    10:00 +21°C° 0 mm 11 m/s 711 mmHg 49%
    11:00 +21°C° 0 mm 11 m/s 711 mmHg 45%
    12:00 +21°C° 0 mm 11 m/s 711 mmHg 45%
    13:00 +21°C° 0 mm 11 m/s 711 mmHg 45%
    14:00 +21°C° 0 mm 11 m/s 711 mmHg 45%
    15:00 +21°C° 0 mm 11 m/s 710 mmHg 48%
    16:00 +19°C° 0 mm 11 m/s 710 mmHg 50%
    17:00 +18°C° 0 mm 11 m/s 709 mmHg 53%
    18:00 +17°C° 0.1 mm 11 m/s 709 mmHg 56%
    19:00 +17°C° 0.1 mm 11 m/s 710 mmHg 58%
    20:00 +16°C° 0.1 mm 10 m/s 710 mmHg 61%
    21:00 +16°C° 0.1 mm 10 m/s 710 mmHg 62%
    22:00 +16°C° 0.1 mm 10 m/s 710 mmHg 63%
    23:00 +16°C° 0.1 mm 9 m/s 710 mmHg 63%

    Après-demain, 27 Septembre, Jeudi

    Heure Température Précipitation Vent Pression Humidité
    00:00 +16°C° 0.1 mm 9 m/s 709 mmHg 64%
    01:00 +16°C° 0.1 mm 9 m/s 709 mmHg 65%
    02:00 +16°C° 0.1 mm 9 m/s 709 mmHg 66%
    03:00 +16°C° 0.1 mm 9 m/s 709 mmHg 66%
    04:00 +16°C° 0.1 mm 9 m/s 708 mmHg 66%
    05:00 +16°C° 0.1 mm 8 m/s 708 mmHg 66%
    06:00 +16°C° 0 mm 8 m/s 708 mmHg 63%
    07:00 +17°C° 0 mm 8 m/s 708 mmHg 61%
    08:00 +17°C° 0 mm 7 m/s 708 mmHg 59%
    09:00 +20°C° 0 mm 7 m/s 708 mmHg 56%
    10:00 +21°C° 0 mm 6 m/s 709 mmHg 52%
    11:00 +22°C° 0 mm 5 m/s 709 mmHg 48%
    12:00 +22°C° 0 mm 5 m/s 709 mmHg 47%
    13:00 +23°C° 0 mm 4 m/s 709 mmHg 46%
    14:00 +23°C° 0 mm 4 m/s 709 mmHg 45%
    15:00 +22°C° 0 mm 4 m/s 709 mmHg 48%
    16:00 +21°C° 0 mm 4 m/s 709 mmHg 51%
    17:00 +21°C° 0 mm 4 m/s 709 mmHg 54%
    18:00 +20°C° 0.1 mm 4 m/s 709 mmHg 57%
    19:00 +20°C° 0.1 mm 4 m/s 709 mmHg 60%
    20:00 +19°C° 0.1 mm 4 m/s 709 mmHg 63%
    21:00 +19°C° 0 mm 4 m/s 709 mmHg 63%
    22:00 +19°C° 0 mm 4 m/s 709 mmHg 62%
    23:00 +19°C° 0 mm 4 m/s 709 mmHg 62%

    28 Septembre, Vendredi

    Heure Température Précipitation Vent Pression Humidité
    00:00 +19°C° 0 mm 4 m/s 709 mmHg 63%
    01:00 +20°C° 0 mm 4 m/s 709 mmHg 64%
    02:00 +20°C° 0 mm 4 m/s 709 mmHg 65%
    03:00 +20°C° 0.1 mm 5 m/s 708 mmHg 66%
    04:00 +20°C° 0.1 mm 5 m/s 708 mmHg 66%
    05:00 +20°C° 0.1 mm 5 m/s 708 mmHg 67%
    06:00 +20°C° 0.4 mm 4 m/s 708 mmHg 66%
    07:00 +20°C° 0.4 mm 4 m/s 709 mmHg 65%
    08:00 +21°C° 0.4 mm 4 m/s 709 mmHg 64%
    09:00 +22°C° 0.7 mm 4 m/s 709 mmHg 61%
    10:00 +23°C° 0.7 mm 5 m/s 709 mmHg 58%
    11:00 +25°C° 0.7 mm 5 m/s 709 mmHg 55%
    12:00 +25°C° 0.3 mm 5 m/s 709 mmHg 58%
    13:00 +25°C° 0.3 mm 5 m/s 709 mmHg 60%
    14:00 +25°C° 0.3 mm 5 m/s 708 mmHg 62%
    15:00 +23°C° 0 mm 4 m/s 708 mmHg 65%
    16:00 +23°C° 0 mm 4 m/s 708 mmHg 68%
    17:00 +22°C° 0 mm 4 m/s 708 mmHg 70%
    18:00 +22°C° 0 mm 3 m/s 708 mmHg 74%
    19:00 +21°C° 0 mm 3 m/s 708 mmHg 79%
    20:00 +20°C° 0 mm 2 m/s 708 mmHg 83%
    21:00 +20°C° 0 mm 2 m/s 708 mmHg 83%
    22:00 +20°C° 0 mm 2 m/s 708 mmHg 83%
    23:00 +19°C° 0 mm 2 m/s 709 mmHg 83%

    29 Septembre, Samedi

    Heure Température Précipitation Vent Pression Humidité
    00:00 +19°C° 0 mm 2 m/s 708 mmHg 80%
    01:00 +18°C° 0 mm 2 m/s 708 mmHg 78%
    02:00 +18°C° 0 mm 2 m/s 708 mmHg 75%
    03:00 +18°C° 0 mm 2 m/s 708 mmHg 73%
    04:00 +18°C° 0 mm 2 m/s 708 mmHg 71%
    05:00 +17°C° 0 mm 2 m/s 708 mmHg 70%
    06:00 +18°C° 0 mm 2 m/s 708 mmHg 70%
    07:00 +19°C° 0 mm 3 m/s 708 mmHg 71%
    08:00 +20°C° 0 mm 3 m/s 708 mmHg 72%
    09:00 +21°C° 0 mm 3 m/s 708 mmHg 65%
    10:00 +22°C° 0 mm 3 m/s 709 mmHg 58%
    11:00 +24°C° 0 mm 3 m/s 709 mmHg 52%
    12:00 +23°C° 0 mm 4 m/s 708 mmHg 52%
    13:00 +23°C° 0 mm 4 m/s 708 mmHg 51%
    14:00 +23°C° 0 mm 4 m/s 708 mmHg 51%
    15:00 +22°C° 0 mm 4 m/s 707 mmHg 55%
    16:00 +22°C° 0 mm 4 m/s 707 mmHg 59%
    17:00 +21°C° 0 mm 4 m/s 707 mmHg 63%
    18:00 +21°C° 0 mm 4 m/s 707 mmHg 65%
    19:00 +21°C° 0 mm 3 m/s 707 mmHg 68%
    20:00 +20°C° 0 mm 3 m/s 707 mmHg 71%
    21:00 +20°C° 0 mm 3 m/s 707 mmHg 72%
    22:00 +20°C° 0 mm 3 m/s 707 mmHg 73%
    23:00 +19°C° 0 mm 4 m/s 707 mmHg 75%

    30 Septembre, Dimanche

    Heure Température Précipitation Vent Pression Humidité
    00:00 +19°C° 0.2 mm 4 m/s 707 mmHg 75%
    01:00 +19°C° 0.2 mm 4 m/s 706 mmHg 76%
    02:00 +19°C° 0.2 mm 4 m/s 706 mmHg 77%
    03:00 +19°C° 0.5 mm 4 m/s 706 mmHg 78%
    04:00 +19°C° 0.5 mm 5 m/s 706 mmHg 79%
    05:00 +19°C° 0.5 mm 5 m/s 706 mmHg 80%
    06:00 +19°C° 0.2 mm 5 m/s 706 mmHg 77%
    07:00 +20°C° 0.2 mm 5 m/s 706 mmHg 75%
    08:00 +20°C° 0.2 mm 5 m/s 706 mmHg 73%
    09:00 +21°C° 0.1 mm 5 m/s 706 mmHg 69%
    10:00 +21°C° 0.1 mm 5 m/s 706 mmHg 65%
    11:00 +22°C° 0.1 mm 6 m/s 706 mmHg 62%
    12:00 +22°C° 0.1 mm 6 m/s 706 mmHg 61%
    13:00 +23°C° 0.1 mm 6 m/s 706 mmHg 60%
    14:00 +23°C° 0.1 mm 7 m/s 706 mmHg 60%
    15:00 +22°C° 0.1 mm 6 m/s 706 mmHg 63%
    16:00 +22°C° 0.1 mm 6 m/s 706 mmHg 65%
    17:00 +21°C° 0.1 mm 6 m/s 706 mmHg 68%
    18:00 +21°C° 0.1 mm 7 m/s 706 mmHg 70%
    19:00 +20°C° 0.1 mm 7 m/s 706 mmHg 72%
    20:00 +20°C° 0.1 mm 7 m/s 706 mmHg 73%
    21:00 +20°C° 0.2 mm 7 m/s 705 mmHg 74%
    22:00 +20°C° 0.2 mm 8 m/s 705 mmHg 74%
    23:00 +20°C° 0.2 mm 8 m/s 705 mmHg 74%
    Voir plus